User: anonymous   Login
Location: Wilsall
(45.9940°N, 110.6590°W)
Time: 00:08:46
(UTC-06:00)
Language:

GP-B - Orbit

View from above orbital plane
View from above orbital plane
View from above satellite
View from above satellite

Ground track
Ground track

The orbit data is extracted from the following two-line orbital elements,

1 28230U 04014A   18168.41792052 +.00000099 +00000-0 +11333-4 0  9991
2 28230 089.8354 114.7546 0002107 077.8875 282.2584 14.78623116763066
Epoch (UTC): 17 June 2018 10:01:48
Eccentricity: 0.0002107
inclination: 89.8354°
perigee height: 632 km
apogee height: 635 km
right ascension of ascending node: 114.7546°
argument of perigee: 77.8875°
revolutions per day: 14.78623116
mean anomaly at epoch: 282.2584°
orbit number at epoch: 76306

The dashed part of the orbit path shows where the satellite is in the earth's shadow,  

DLR